Location: Marysville Observatory
(48.1092°N, 122.1645°W)
Time: 19:39:03
(UTC-07:00)

Amateur Radio Satellites - All Passes

Search period start: 25 July 2016 19:09
Search period end: 26 July 2016 19:09
Location: Marysville Observatory, 48.1092°N, 122.1645°W

Satellite Date Start Highest point End Downlink Frequencies (MHz)
Time Altitude Azimuth
PHONESAT 2.4 25 Jul 19:15:13 19:17:10 16° 166° (SSE) 19:19:06 2401.200-2431.200
Cosmos 2499 25 Jul 19:15:53 19:21:23 18° 307° (NW) 19:26:49 435.465 / 435.565
CUBEBUG 2 25 Jul 19:15:53 19:17:35 12° 55° (NE) 19:19:18 437.445
CUBESAT XI-V 25 Jul 19:18:20 19:22:41 42° 291° (WNW) 19:27:02 437.345
COMPASS 1 25 Jul 19:18:46 19:20:55 14° 59° (ENE) 19:23:03 437.405
GONETS M04 25 Jul 19:24:05 19:27:43 13° 315° (NW) 19:31:21
YUBILEINY 25 Jul 19:25:11 19:31:20 20° 54° (NE) 19:37:26 435.215
NOAA 18 25 Jul 19:30:31 19:35:23 31° 265° (W) 19:40:16 137.9125
CINEMA 3 25 Jul 19:30:54 19:35:07 41° 68° (ENE) 19:39:36 145.822/145.860
BEESAT 3 25 Jul 19:34:56 19:38:42 48° 122° (ESE) 19:42:31 437.485
BRITE-PL 25 Jul 19:35:33 19:37:38 14° 271° (W) 19:39:45 437.365/2234.400
NOAA 15 25 Jul 19:35:42 19:39:38 21° 269° (W) 19:43:35 137.62
BEESAT 2 25 Jul 19:38:02 19:41:29 29° 118° (ESE) 19:44:58 435.950
CANX-2 25 Jul 19:40:59 19:45:05 45° 70° (ENE) 19:49:10 2200.000
AAUSAT CUBESAT 2 25 Jul 19:47:38 19:50:44 21° 64° (ENE) 19:53:51 437.432
Oscar 11 25 Jul 19:47:47 19:48:34 10° 56° (NE) 19:49:21 145.826/435.025
CUTE 1.7 + AOD 2 25 Jul 19:54:39 19:58:50 54° 72° (ENE) 20:03:01 437.475
AO-85 25 Jul 19:59:04 20:00:26 11° 7° (N) 20:01:46 145.980
STRAND 1 25 Jul 20:06:27 20:11:20 42° 98° (E) 20:16:09 437.568
HO-68 25 Jul 20:07:56 20:15:08 90° 94° (E) 20:22:25 435.675
Cosmos 2504 25 Jul 20:17:20 20:21:13 14° 47° (NE) 20:24:58 435.465 / 435.565
AUBIESAT-1 25 Jul 20:21:32 20:23:03 12° 49° (NE) 20:24:37 437.475
DELFI C3 25 Jul 20:27:09 20:27:36 10° 58° (ENE) 20:28:04 145.870
Cubesat XI-IV 25 Jul 20:28:47 20:30:05 11° 275° (W) 20:31:24 437.490
UWE-3 25 Jul 20:30:36 20:34:49 37° 67° (ENE) 20:39:06 435.000/436.395/437.385
ZACube-1 25 Jul 20:35:18 20:39:12 28° 65° (ENE) 20:43:08 437.345
FUNcube-1 25 Jul 20:35:24 20:39:12 27° 65° (ENE) 20:43:04 145.935
PCSat 25 Jul 20:36:15 20:41:39 76° 121° (ESE) 20:47:06 145.827
SEEDS 25 Jul 20:36:50 20:41:05 76° 258° (WSW) 20:45:20 437.485
DOVE 4 25 Jul 20:47:26 20:49:31 13° 274° (W) 20:51:40 437.250
CUBEBUG 2 25 Jul 20:48:46 20:53:21 76° 75° (ENE) 20:58:06 437.445
PHONESAT 2.4 25 Jul 20:50:44 20:53:04 20° 183° (S) 20:55:24 2401.200-2431.200
COMPASS 1 25 Jul 20:51:44 20:55:56 74° 258° (WSW) 21:00:07 437.405
Cosmos 2491 25 Jul 20:53:35 21:00:07 24° 78° (ENE) 21:06:38 435.465 / 435.565
CINEMA 3 25 Jul 21:08:40 21:12:26 26° 268° (W) 21:16:22 145.822/145.860
BEESAT 3 25 Jul 21:13:15 21:16:35 25° 321° (NW) 21:19:57 437.485
BEESAT 2 25 Jul 21:15:32 21:19:14 36° 317° (NW) 21:22:58 435.950
CANX-2 25 Jul 21:17:58 21:21:09 20° 268° (W) 21:24:21 2200.000
Oscar 11 25 Jul 21:19:34 21:23:55 74° 75° (ENE) 21:28:17 145.826/435.025
PRISM 25 Jul 21:20:20 21:23:59 30° 97° (E) 21:27:37 437.425
YUBILEINY 25 Jul 21:21:00 21:29:55 75° 79° (E) 21:38:43 435.215
AAUSAT CUBESAT 2 25 Jul 21:21:59 21:25:58 44° 261° (W) 21:29:58 437.432
AIST 2 25 Jul 21:25:29 21:28:35 21° 114° (ESE) 21:31:44 435.215
M-CUBED/EXP-1 PRIME 25 Jul 21:25:33 21:29:14 51° 65° (ENE) 21:33:17 437.505
CUTE 1.7 + AOD 2 25 Jul 21:32:13 21:35:01 17° 270° (W) 21:37:48 437.475
AO-85 25 Jul 21:38:59 21:42:41 22° 32° (NNE) 21:46:07 145.980
O/OREOS (USA 219) 25 Jul 21:44:30 21:48:57 78° 115° (ESE) 21:53:28 437.305
STRAND 1 25 Jul 21:45:56 21:50:22 30° 297° (WNW) 21:54:46 437.568
AUBIESAT-1 25 Jul 21:52:55 21:56:44 83° 72° (ENE) 22:00:56 437.475
DELFI C3 25 Jul 21:57:48 22:01:47 85° 77° (ENE) 22:05:47 145.870
HO-68 25 Jul 21:58:50 22:03:49 20° 272° (W) 22:08:50 435.675
HUMSAT D 25 Jul 22:03:22 22:07:32 49° 71° (ENE) 22:11:43 437.325/437.525
UWE-3 25 Jul 22:07:21 22:11:19 29° 266° (W) 22:15:22 435.000/436.395/437.385
Cosmos 2504 25 Jul 22:08:50 22:17:01 54° 73° (ENE) 22:24:34 435.465 / 435.565
FUNcube-1 25 Jul 22:11:02 22:15:17 39° 263° (W) 22:19:36 145.935
ZACube-1 25 Jul 22:11:09 22:15:21 37° 264° (W) 22:19:38 437.345
ESTCUBE 1 25 Jul 22:16:43 22:19:30 16° 59° (ENE) 22:22:17 437.505/2401.250
PCSat 25 Jul 22:21:08 22:25:38 26° 323° (NW) 22:30:10 145.827
PHONESAT 2.4 25 Jul 22:27:44 22:28:55 12° 200° (SSW) 22:30:06 2401.200-2431.200
CUBEBUG 2 25 Jul 22:28:05 22:30:33 14° 273° (W) 22:33:05 437.445
ISS 25 Jul 22:29:44 22:32:31 26° 143° (SE) 22:35:19 145.825
ANTELSAT 25 Jul 22:36:36 22:40:11 21° 91° (E) 22:43:40 437.575/2403.000
VELOX 1 25 Jul 22:39:59 22:42:43 17° 59° (ENE) 22:45:29 145.980
CUBEBUG 1 25 Jul 22:44:49 22:47:55 20° 62° (ENE) 22:51:01 437.445
Cosmos 2491 25 Jul 22:47:11 22:55:55 83° 280° (W) 23:04:41 435.465 / 435.565
PRISM 25 Jul 22:55:44 22:59:13 28° 294° (WNW) 23:02:44 437.425
BEESAT 2 25 Jul 22:57:09 22:58:11 11° 339° (NNW) 22:59:14 435.950
Oscar 11 25 Jul 22:58:34 23:00:35 13° 272° (W) 23:02:35 145.826/435.025
M-CUBED/EXP-1 PRIME 25 Jul 23:01:45 23:04:11 16° 265° (W) 23:06:44 437.505
AIST 2 25 Jul 23:02:44 23:06:46 52° 313° (NW) 23:10:50 435.215
TIGRISAT 25 Jul 23:18:07 23:22:40 49° 99° (E) 23:27:06 435.000
YUBILEINY 25 Jul 23:18:48 23:25:52 28° 280° (W) 23:32:54 435.215
AO-85 25 Jul 23:19:10 23:23:42 76° 235° (SW) 23:27:49 145.980
AISAT 25 Jul 23:22:56 23:27:02 41° 69° (ENE) 23:31:11 437.250
O/OREOS (USA 219) 25 Jul 23:26:01 23:28:57 17° 314° (NW) 23:31:55 437.305
DX 1 25 Jul 23:28:14 23:32:07 34° 67° (ENE) 23:36:02 434.975-435.025
NANOSAT C BR1 25 Jul 23:29:56 23:31:15 11° 87° (E) 23:32:34 145.865
AUBIESAT-1 25 Jul 23:31:27 23:31:55 10° 269° (W) 23:32:23 437.475
UNISAT 6 25 Jul 23:33:55 23:38:36 74° 101° (ESE) 23:43:11 437.425
DUCHIFAT 1 25 Jul 23:34:42 23:36:19 12° 88° (E) 23:37:56 145.980
HUMSAT D 25 Jul 23:40:21 23:43:25 19° 269° (W) 23:46:31 437.325/437.525
UKube-1 25 Jul 23:44:37 23:48:37 39° 68° (ENE) 23:52:39 .
50 SAT 25 Jul 23:45:00 23:48:38 64° 73° (ENE) 23:52:16 437.505
TISAT 1 25 Jul 23:49:43 23:50:33 10° 56° (NE) 23:51:23 437.305
QB50P1 25 Jul 23:49:59 23:53:06 19° 92° (E) 23:56:12 145.935-145.965
ESTCUBE 1 25 Jul 23:51:19 23:55:48 70° 258° (WSW) 00:00:18 437.505/2401.250
POPSAT HIP 1 25 Jul 23:56:06 23:59:28 22° 93° (E) 00:02:48 437.405
Cosmos 2504 26 Jul 00:02:43 00:10:04 37° 276° (W) 00:16:56 435.465 / 435.565
ISS 26 Jul 00:05:30 00:08:46 71° 342° (NNW) 00:12:01 145.825
AIST 1 26 Jul 00:07:16 00:10:47 23° 69° (ENE) 00:14:17
PCSat 26 Jul 00:09:26 00:11:03 11° 348° (NNW) 00:12:40 145.827
ANTELSAT 26 Jul 00:12:38 00:17:09 49° 290° (WNW) 00:21:34 437.575/2403.000
VELOX 1 26 Jul 00:14:21 00:18:43 66° 258° (WSW) 00:23:07 145.980
QB50P2 26 Jul 00:16:14 00:20:14 36° 97° (E) 00:24:12 145.880/145.840
POLYITAN 1 26 Jul 00:18:52 00:22:53 37° 97° (E) 00:26:52 437.675
CUBEBUG 1 26 Jul 00:19:39 00:23:52 52° 260° (W) 00:28:06 437.445
SPROUT 26 Jul 00:20:33 00:24:48 70° 73° (ENE) 00:29:06 437.525
JAS-2 26 Jul 00:29:50 00:33:23 18° 90° (E) 00:37:04 435.910
SWISSCUBE 26 Jul 00:43:50 00:45:13 11° 53° (NE) 00:46:36 437.505
AIST 2 26 Jul 00:44:03 00:46:12 14° 335° (NNW) 00:48:20 435.215
Cosmos 2491 26 Jul 00:47:55 00:54:17 22° 304° (NW) 01:00:41 435.465 / 435.565
TIGRISAT 26 Jul 00:55:24 00:59:03 23° 298° (WNW) 01:02:38 435.000
AISAT 26 Jul 01:00:10 01:03:41 23° 267° (W) 01:07:15 437.250
NANOSAT C BR1 26 Jul 01:03:16 01:07:35 83° 284° (WNW) 01:11:51 145.865
BEESAT 26 Jul 01:03:49 01:06:32 15° 56° (ENE) 01:09:16 436.000
DX 1 26 Jul 01:04:38 01:08:21 28° 265° (W) 01:12:06 434.975-435.025
DUCHIFAT 1 26 Jul 01:08:16 01:12:34 78° 285° (WNW) 01:16:49 145.980
UNISAT 6 26 Jul 01:11:51 01:14:45 17° 301° (WNW) 01:17:37 437.425
Cosmos 2499 26 Jul 01:13:50 01:17:59 15° 49° (NE) 01:21:58 435.465 / 435.565
TISAT 1 26 Jul 01:21:15 01:25:27 78° 75° (ENE) 01:29:42 437.305
UKube-1 26 Jul 01:21:19 01:24:48 24° 266° (W) 01:28:18 .
50 SAT 26 Jul 01:21:40 01:22:40 11° 271° (W) 01:23:41 437.505
ITUPSAT 1 26 Jul 01:24:49 01:28:29 22° 61° (ENE) 01:32:09 437.325
QB50P1 26 Jul 01:25:00 01:29:09 48° 289° (WNW) 01:33:15 145.935-145.965
BUGSAT 1 26 Jul 01:28:43 01:33:00 81° 102° (ESE) 01:37:16 437.445
GONETS M04 26 Jul 01:28:44 01:35:54 27° 60° (ENE) 01:43:03
POPSAT HIP 1 26 Jul 01:31:21 01:35:26 42° 291° (WNW) 01:39:29 437.405
ISS 26 Jul 01:42:20 01:45:28 42° 0° (N) 01:48:37 145.825
AIST 1 26 Jul 01:44:30 01:48:32 38° 268° (W) 01:52:32
QB50P2 26 Jul 01:52:19 01:55:53 26° 295° (WNW) 01:59:26 145.880/145.840
POLYITAN 1 26 Jul 01:54:59 01:58:32 26° 295° (WNW) 02:02:04 437.675
PCSat 26 Jul 01:55:06 01:57:05 12° 15° (NNE) 01:59:04 145.827
SPROUT 26 Jul 01:59:09 02:01:15 13° 272° (W) 02:03:22 437.525
Gurwin Techsat 1B 26 Jul 02:11:10 02:14:58 19° 90° (E) 02:18:44 435.225
BEESAT 3 26 Jul 02:11:48 02:14:35 18° 33° (NNE) 02:17:21 437.485
JAS-2 26 Jul 02:13:49 02:19:01 69° 288° (WNW) 02:24:32 435.910
BEESAT 2 26 Jul 02:15:24 02:17:34 14° 27° (NNE) 02:19:45 435.950
SWISSCUBE 26 Jul 02:17:22 02:22:08 68° 72° (ENE) 02:26:54 437.505
ITAMSAT 1 26 Jul 02:36:20 02:36:43 10° 85° (E) 02:37:06 435.822/435.867
BEESAT 26 Jul 02:38:53 02:43:41 86° 257° (WSW) 02:48:31 436.000
Oscar 19 26 Jul 02:40:27 02:45:37 69° 102° (ESE) 02:50:47 437.125/150
NANOSAT C BR1 26 Jul 02:41:16 02:42:35 11° 304° (WNW) 02:43:54 145.865
DUCHIFAT 1 26 Jul 02:46:31 02:47:31 11° 304° (NW) 02:48:31 145.980
AO-7 26 Jul 02:58:31 03:01:04 11° 82° (E) 03:03:37 29.400- 29.500
TISAT 1 26 Jul 03:00:12 03:01:40 12° 272° (W) 03:03:08 437.305
ITUPSAT 1 26 Jul 03:01:15 03:05:58 55° 259° (W) 03:10:43 437.325
Cosmos 2499 26 Jul 03:05:16 03:13:15 61° 75° (ENE) 03:20:34 435.465 / 435.565
BUGSAT 1 26 Jul 03:05:43 03:07:47 13° 302° (WNW) 03:09:52 437.445
KKS-1 26 Jul 03:07:40 03:11:21 26° 64° (ENE) 03:15:05 437.445
ISS 26 Jul 03:18:53 03:22:10 78° 21° (NNE) 03:25:25 145.825
GONETS M04 26 Jul 03:25:01 03:33:51 83° 263° (W) 03:42:42
MOZHAYETS 4 26 Jul 03:31:43 03:36:08 45° 69° (ENE) 03:40:33
PCSat 26 Jul 03:37:38 03:42:22 29° 40° (NE) 03:47:05 145.827
CUSAT 1 26 Jul 03:45:35 03:48:45 22° 96° (E) 03:51:25 437.405
BEESAT 3 26 Jul 03:48:49 03:52:48 87° 236° (SW) 03:56:46 437.485
STARS 26 Jul 03:49:34 03:53:33 34° 67° (ENE) 03:57:33 437.465
Gurwin Techsat 1B 26 Jul 03:50:07 03:55:24 67° 289° (WNW) 04:00:40 435.225
BEESAT 2 26 Jul 03:52:15 03:56:13 59° 48° (NE) 04:00:11 435.950
DANDE 26 Jul 03:55:59 03:59:11 16° 92° (E) 04:01:57 436.750
SWISSCUBE 26 Jul 03:57:23 04:00:24 17° 270° (W) 04:03:27 437.505
JAS-2 26 Jul 04:01:27 04:03:16 12° 308° (NW) 04:05:07 435.910
AIST 2 26 Jul 04:05:01 04:06:57 13° 24° (NNE) 04:08:53 435.215
ITAMSAT 1 26 Jul 04:11:55 04:17:09 72° 103° (ESE) 04:22:19 435.822/435.867
BEESAT 26 Jul 04:20:40 04:22:12 11° 274° (W) 04:23:43 436.000
Oscar 19 26 Jul 04:20:45 04:24:28 20° 301° (WNW) 04:28:10 437.125/150
KKS-1 26 Jul 04:43:38 04:47:47 38° 262° (W) 04:51:58 437.445
AO-7 26 Jul 04:47:30 04:55:45 58° 103° (ESE) 05:03:54 29.400- 29.500
CUBESAT XI-V 26 Jul 04:47:54 04:52:06 35° 67° (ENE) 04:56:17 437.345
ISS 26 Jul 04:55:42 04:58:20 23° 219° (SW) 05:00:58 145.825
Cosmos 2499 26 Jul 04:59:06 05:05:49 31° 278° (W) 05:12:07 435.465 / 435.565
MOZHAYETS 4 26 Jul 05:09:47 05:13:30 23° 267° (W) 05:17:14
RS-15 26 Jul 05:15:23 05:18:24 11° 89° (E) 05:21:27 29.354- 29.394
PCSat 26 Jul 05:20:48 05:26:11 64° 241° (WSW) 05:31:31 145.827
GONETS M04 26 Jul 05:23:32 05:29:18 20° 285° (WNW) 05:35:06
STARS 26 Jul 05:26:10 05:29:57 28° 265° (W) 05:33:46 437.465
CUSAT 1 26 Jul 05:27:34 05:30:42 23° 287° (WNW) 05:33:20 437.405
BEESAT 3 26 Jul 05:29:04 05:29:48 10° 251° (WSW) 05:30:34 437.485
BEESAT 2 26 Jul 05:31:00 05:33:40 17° 247° (WSW) 05:36:20 435.950
Gurwin Techsat 1B 26 Jul 05:32:13 05:34:24 13° 308° (NW) 05:36:34 435.225
DANDE 26 Jul 05:36:23 05:41:50 61° 283° (WNW) 05:45:54 436.750
AIST 2 26 Jul 05:42:25 05:46:28 46° 46° (NE) 05:50:29 435.215
STRAND 1 26 Jul 05:49:32 05:52:25 15° 55° (NE) 05:55:19 437.568
ITAMSAT 1 26 Jul 05:52:24 05:56:06 20° 302° (WNW) 05:59:46 435.822/435.867
HORYU 2 26 Jul 05:54:49 05:59:09 46° 99° (E) 06:03:27 437.375
BRITE-PL 26 Jul 05:55:25 05:58:28 17° 90° (E) 06:01:37 437.365/2234.400
NOAA 15 26 Jul 06:06:49 06:10:10 17° 89° (E) 06:13:30 137.62
NOAA 18 26 Jul 06:09:15 06:11:58 14° 87° (E) 06:14:41 137.9125
O/OREOS (USA 219) 26 Jul 06:11:49 06:16:03 37° 56° (ENE) 06:20:15 437.305
CUBESAT XI-V 26 Jul 06:25:29 06:29:31 29° 265° (W) 06:33:33 437.345
LilacSat-2 26 Jul 06:35:24 06:38:09 18° 92° (E) 06:40:53 437.200
AO-7 26 Jul 06:40:39 06:48:17 41° 304° (NW) 06:55:53 29.400- 29.500
Cubesat XI-IV 26 Jul 06:57:29 07:02:23 35° 96° (E) 07:07:13 437.490
Cosmos 2491 26 Jul 06:57:43 07:02:42 16° 50° (NE) 07:07:39 435.465 / 435.565
DOVE 4 26 Jul 07:02:19 07:05:49 18° 89° (E) 07:09:22 437.250
GOMX 1 26 Jul 07:02:41 07:07:13 34° 96° (E) 07:11:59 467.674
RS-15 26 Jul 07:16:39 07:27:35 53° 113° (ESE) 07:39:04 29.354- 29.394
AIST 2 26 Jul 07:21:19 07:24:43 25° 245° (WSW) 07:28:08 435.215
CUTE-I 26 Jul 07:21:20 07:26:36 55° 100° (E) 07:31:49 437.470
STRAND 1 26 Jul 07:25:42 07:30:52 86° 74° (ENE) 07:36:03 437.568
HORYU 2 26 Jul 07:31:56 07:35:27 23° 298° (WNW) 07:38:56 437.375
BRITE-PL 26 Jul 07:32:39 07:37:20 69° 286° (WNW) 07:42:23 437.365/2234.400
HO-68 26 Jul 07:34:00 07:37:27 14° 84° (E) 07:40:53 435.675
NOAA 15 26 Jul 07:45:16 07:50:32 76° 289° (WNW) 07:55:47 137.62
NOAA 18 26 Jul 07:47:52 07:53:28 85° 106° (ESE) 07:59:01 137.9125
O/OREOS (USA 219) 26 Jul 07:51:25 07:55:20 29° 255° (WSW) 07:59:15 437.305
SO-50 26 Jul 08:03:02 08:06:15 18° 111° (ESE) 08:09:26 436.795
LilacSat-2 26 Jul 08:08:59 08:12:39 41° 290° (WNW) 08:16:17 437.200
PRISM 26 Jul 08:13:00 08:16:44 36° 68° (ENE) 08:20:29 437.425
SEEDS 26 Jul 08:18:33 08:20:47 14° 89° (E) 08:23:00 437.485
COMPASS 1 26 Jul 08:32:26 08:34:35 14° 89° (E) 08:36:43 437.405
YUBILEINY 26 Jul 08:34:03 08:39:16 18° 73° (ENE) 08:44:32 435.215
AO-7 26 Jul 08:35:19 08:38:51 13° 328° (NNW) 08:42:23 29.400- 29.500
Cubesat XI-IV 26 Jul 08:37:33 08:42:29 39° 295° (WNW) 08:47:23 437.490
CUBEBUG 2 26 Jul 08:37:42 08:40:08 14° 87° (E) 08:42:32 437.445
DOVE 4 26 Jul 08:38:53 08:43:56 70° 286° (WNW) 08:49:10 437.250
GOMX 1 26 Jul 08:40:48 08:45:18 36° 292° (WNW) 08:50:03 467.674
TIGRISAT 26 Jul 08:47:42 08:48:30 10° 54° (NE) 08:49:19 435.000
Cosmos 2491 26 Jul 08:53:03 09:01:45 61° 75° (ENE) 09:10:24 435.465 / 435.565
CANX-2 26 Jul 08:57:59 09:02:09 55° 100° (E) 09:06:17 2200.000
CINEMA 3 26 Jul 08:58:21 09:03:21 63° 101° (E) 09:08:19 145.822/145.860
AAUSAT CUBESAT 2 26 Jul 09:01:00 09:04:13 22° 93° (E) 09:07:24 437.432
UNISAT 6 26 Jul 09:01:42 09:04:17 15° 57° (ENE) 09:06:52 437.425
CUTE-I 26 Jul 09:01:59 09:06:20 26° 300° (WNW) 09:10:39 437.470
Oscar 11 26 Jul 09:05:50 09:06:46 11° 86° (E) 09:07:42 145.826/435.025
STRAND 1 26 Jul 09:08:01 09:10:43 14° 273° (W) 09:13:26 437.568
CUTE 1.7 + AOD 2 26 Jul 09:11:36 09:15:50 67° 102° (ESE) 09:20:00 437.475
BRITE-PL 26 Jul 09:13:52 09:15:06 11° 304° (WNW) 09:16:21 437.365/2234.400
HO-68 26 Jul 09:19:17 09:26:30 70° 104° (ESE) 09:33:39 435.675
NOAA 15 26 Jul 09:26:52 09:29:29 14° 307° (NW) 09:32:05 137.62
RS-15 26 Jul 09:28:25 09:39:59 62° 320° (NW) 09:52:10 29.354- 29.394
NOAA 18 26 Jul 09:29:42 09:33:27 19° 305° (NW) 09:37:12 137.9125
ANTELSAT 26 Jul 09:38:26 09:42:26 29° 65° (ENE) 09:46:30 437.575/2403.000
SO-50 26 Jul 09:41:18 09:46:12 79° 310° (NW) 09:51:03 436.795
PRISM 26 Jul 09:48:53 09:52:09 23° 266° (W) 09:55:26 437.425
UWE-3 26 Jul 09:52:42 09:57:13 48° 98° (E) 10:01:36 435.000/436.395/437.385
SEEDS 26 Jul 09:52:47 09:56:56 63° 287° (WNW) 10:01:02 437.485
FUNcube-1 26 Jul 09:55:28 09:59:32 32° 95° (E) 10:03:30 145.935
ZACube-1 26 Jul 09:55:46 09:59:56 34° 96° (E) 10:03:59 437.345
COMPASS 1 26 Jul 10:06:28 10:10:34 63° 287° (WNW) 10:14:39 437.405
CUBEBUG 2 26 Jul 10:12:35 10:17:21 79° 286° (WNW) 10:22:01 437.445
DOVE 4 26 Jul 10:18:43 10:20:49 13° 305° (NW) 10:22:56 437.250
TIGRISAT 26 Jul 10:19:41 10:24:16 65° 72° (ENE) 10:28:57 435.000
NANOSAT C BR1 26 Jul 10:25:08 10:27:31 15° 59° (ENE) 10:29:54 145.865
YUBILEINY 26 Jul 10:25:45 10:34:31 76° 95° (E) 10:43:21 435.215
DUCHIFAT 1 26 Jul 10:29:46 10:32:15 15° 60° (ENE) 10:34:45 145.980
CANX-2 26 Jul 10:34:47 10:37:38 18° 298° (WNW) 10:40:27 2200.000
M-CUBED/EXP-1 PRIME 26 Jul 10:35:29 10:39:25 26° 99° (E) 10:43:21 437.505
UNISAT 6 26 Jul 10:35:41 10:40:20 85° 257° (WSW) 10:45:05 437.425
AAUSAT CUBESAT 2 26 Jul 10:36:00 10:39:51 38° 291° (WNW) 10:43:40 437.432
CINEMA 3 26 Jul 10:36:19 10:40:02 21° 299° (WNW) 10:43:44 145.822/145.860
Oscar 11 26 Jul 10:39:12 10:43:33 87° 284° (WNW) 10:47:51 145.826/435.025
QB50P1 26 Jul 10:45:45 10:49:08 23° 64° (ENE) 10:52:33 145.935-145.965
JAS-2 26 Jul 10:48:10 10:50:58 14° 54° (NE) 10:53:40 435.910
CUTE 1.7 + AOD 2 26 Jul 10:48:44 10:51:10 15° 300° (WNW) 10:53:36 437.475
BUGSAT 1 26 Jul 10:49:40 10:50:59 11° 57° (ENE) 10:52:19 437.445
Cosmos 2504 26 Jul 10:50:17 10:58:26 43° 86° (E) 11:06:32 435.465 / 435.565
Cosmos 2491 26 Jul 10:50:32 10:58:06 35° 277° (W) 11:05:43 435.465 / 435.565
POPSAT HIP 1 26 Jul 10:51:54 10:55:27 26° 65° (ENE) 10:59:02 437.405
AUBIESAT-1 26 Jul 11:02:11 11:06:31 38° 103° (ESE) 11:10:50 437.475
DELFI C3 26 Jul 11:06:33 11:10:31 86° 104° (ESE) 11:14:27 145.870
HO-68 26 Jul 11:07:40 11:13:42 30° 305° (NW) 11:19:43 435.675
QB50P2 26 Jul 11:12:01 11:16:02 43° 70° (ENE) 11:20:07 145.880/145.840
POLYITAN 1 26 Jul 11:14:38 11:18:41 44° 70° (ENE) 11:22:47 437.675
ANTELSAT 26 Jul 11:14:43 11:19:02 37° 263° (W) 11:23:26 437.575/2403.000
HUMSAT D 26 Jul 11:18:41 11:22:51 56° 100° (E) 11:26:57 437.325/437.525
SO-50 26 Jul 11:23:46 11:27:25 21° 331° (NNW) 11:31:03 436.795
UWE-3 26 Jul 11:29:44 11:33:23 23° 297° (WNW) 11:36:58 435.000/436.395/437.385
FUNcube-1 26 Jul 11:31:45 11:35:44 31° 294° (WNW) 11:39:38 145.935
ZACube-1 26 Jul 11:32:11 11:36:08 29° 294° (WNW) 11:39:58 437.345
ESTCUBE 1 26 Jul 11:40:56 11:44:10 19° 91° (E) 11:47:22 437.505/2401.250
RS-15 26 Jul 11:44:37 11:55:27 37° 352° (N) 12:06:39 29.354- 29.394
CUBEBUG 2 26 Jul 11:51:11 11:53:10 13° 305° (NW) 11:55:09 437.445
TIGRISAT 26 Jul 11:58:27 12:01:25 17° 271° (W) 12:04:25 435.000
NANOSAT C BR1 26 Jul 11:58:30 12:02:42 72° 257° (WSW) 12:06:59 145.865
VELOX 1 26 Jul 12:01:37 12:04:41 18° 91° (E) 12:07:45 145.980
DUCHIFAT 1 26 Jul 12:03:15 12:07:27 68° 258° (WSW) 12:11:42 145.980
CUBEBUG 1 26 Jul 12:04:56 12:08:24 22° 93° (E) 12:11:51 437.445
M-CUBED/EXP-1 PRIME 26 Jul 12:09:36 12:14:03 45° 296° (WNW) 12:18:32 437.505
UNISAT 6 26 Jul 12:16:29 12:17:47 11° 275° (W) 12:19:05 437.425
Oscar 11 26 Jul 12:17:22 12:19:00 12° 303° (WNW) 12:20:36 145.826/435.025
QB50P1 26 Jul 12:20:43 12:24:43 40° 262° (W) 12:28:46 145.935-145.965
BUGSAT 1 26 Jul 12:21:34 12:25:41 88° 65° (ENE) 12:29:52 437.445
Oscar 19 26 Jul 12:23:13 12:27:10 23° 60° (ENE) 12:31:07 437.125/150
YUBILEINY 26 Jul 12:24:50 12:32:16 29° 299° (WNW) 12:39:46 435.215
POPSAT HIP 1 26 Jul 12:27:12 12:31:07 35° 263° (W) 12:35:05 437.405
JAS-2 26 Jul 12:29:22 12:35:20 76° 73° (ENE) 12:40:45 435.910
AUBIESAT-1 26 Jul 12:36:48 12:40:52 31° 300° (WNW) 12:44:56 437.475
Cosmos 2504 26 Jul 12:43:02 12:51:41 53° 288° (WNW) 13:00:16 435.465 / 435.565
AIST 1 26 Jul 12:43:08 12:44:13 11° 81° (E) 12:45:18
DELFI C3 26 Jul 12:43:38 12:44:45 11° 302° (WNW) 12:45:51 145.870
50 SAT 26 Jul 12:43:41 12:47:11 47° 100° (E) 12:50:40 437.505
AISAT 26 Jul 12:45:28 12:49:49 50° 100° (E) 12:54:10 437.250
DX 1 26 Jul 12:48:26 12:52:32 37° 98° (E) 12:56:35 434.975-435.025
QB50P2 26 Jul 12:48:47 12:52:03 21° 268° (W) 12:55:20 145.880/145.840
POLYITAN 1 26 Jul 12:51:27 12:54:42 21° 268° (W) 12:57:58 437.675
HUMSAT D 26 Jul 12:55:16 12:58:04 17° 299° (WNW) 13:00:50 437.325/437.525
UKube-1 26 Jul 13:03:44 13:07:53 42° 99° (E) 13:12:00 .
SO-50 26 Jul 13:08:22 13:09:44 11° 355° (N) 13:11:05 436.795
ESTCUBE 1 26 Jul 13:16:55 13:21:17 52° 289° (WNW) 13:25:38 437.505/2401.250
Gurwin Techsat 1B 26 Jul 13:35:20 13:40:20 43° 67° (ENE) 13:45:22 435.225
VELOX 1 26 Jul 13:37:08 13:41:29 54° 289° (WNW) 13:45:49 145.980
AO-85 26 Jul 13:37:19 13:40:54 18° 111° (ESE) 13:44:22 145.980
SPROUT 26 Jul 13:38:39 13:43:00 83° 102° (ESE) 13:47:20 437.525
CUBEBUG 1 26 Jul 13:40:42 13:44:52 43° 291° (WNW) 13:49:02 437.445
ITAMSAT 1 26 Jul 13:55:24 13:59:37 25° 61° (ENE) 14:03:51 435.822/435.867
AO-7 26 Jul 13:59:40 14:06:32 30° 49° (NE) 14:13:25 29.400- 29.500
RS-15 26 Jul 14:00:16 14:11:51 45° 25° (NNE) 14:23:31 29.354- 29.394
Oscar 19 26 Jul 14:01:04 14:06:07 59° 259° (W) 14:11:12 437.125/150
CUSAT 1 26 Jul 14:13:44 14:15:28 15° 71° (ENE) 14:17:22 437.405
SWISSCUBE 26 Jul 14:15:42 14:17:54 13° 88° (E) 14:20:06 437.505
AIST 1 26 Jul 14:16:53 14:21:08 79° 281° (W) 14:25:26
JAS-2 26 Jul 14:17:08 14:20:58 18° 270° (W) 14:24:36 435.910
50 SAT 26 Jul 14:18:19 14:20:29 15° 298° (WNW) 14:22:38 437.505
AISAT 26 Jul 14:22:38 14:25:59 21° 298° (WNW) 14:29:21 437.250
DX 1 26 Jul 14:24:56 14:28:35 26° 296° (WNW) 14:32:13 434.975-435.025
BEESAT 26 Jul 14:36:16 14:39:37 19° 91° (E) 14:42:57 436.000
GONETS M04 26 Jul 14:36:20 14:42:51 25° 78° (ENE) 14:49:24
TISAT 1 26 Jul 14:37:03 14:41:20 85° 102° (ESE) 14:45:36 437.305
UKube-1 26 Jul 14:40:17 14:43:42 23° 297° (WNW) 14:47:08 .
Cosmos 2504 26 Jul 14:43:08 14:47:28 14° 312° (NW) 14:51:48 435.465 / 435.565
SO-50 26 Jul 14:49:34 14:52:16 15° 20° (NNE) 14:54:55 436.795
ITUPSAT 1 26 Jul 14:58:18 15:02:28 29° 95° (E) 15:06:35 437.325
AO-85 26 Jul 15:15:30 15:20:52 84° 308° (NW) 15:25:57 145.980
Gurwin Techsat 1B 26 Jul 15:15:47 15:20:26 30° 265° (W) 15:25:07 435.225
SPROUT 26 Jul 15:16:16 15:18:21 13° 302° (WNW) 15:20:24 437.525
HORYU 2 26 Jul 15:24:10 15:24:40 10° 53° (NE) 15:25:10 437.375
ITAMSAT 1 26 Jul 15:33:39 15:38:46 54° 259° (W) 15:43:55 435.822/435.867
Cosmos 2499 26 Jul 15:44:36 15:52:54 47° 88° (E) 16:01:00 435.465 / 435.565
AO-7 26 Jul 15:50:07 15:58:31 83° 252° (WSW) 16:06:58 29.400- 29.500
SWISSCUBE 26 Jul 15:51:33 15:56:20 84° 287° (WNW) 16:01:06 437.505
CUSAT 1 26 Jul 15:55:04 15:57:27 23° 263° (W) 16:00:11 437.405
DANDE 26 Jul 16:11:03 16:13:35 49° 261° (W) 16:16:14 436.750
BEESAT 26 Jul 16:13:06 16:17:48 59° 289° (WNW) 16:22:28 436.000
RS-15 26 Jul 16:13:34 16:25:59 89° 234° (SW) 16:38:17 29.354- 29.394
TISAT 1 26 Jul 16:14:28 16:16:22 13° 302° (WNW) 16:18:15 437.305
SO-50 26 Jul 16:29:26 16:33:57 44° 43° (NE) 16:38:19 436.795
GONETS M04 26 Jul 16:29:57 16:38:39 82° 281° (W) 16:47:27
KKS-1 26 Jul 16:30:45 16:34:45 30° 96° (E) 16:38:43 437.445
ITUPSAT 1 26 Jul 16:35:58 16:40:24 38° 293° (WNW) 16:44:47 437.325
Cubesat XI-IV 26 Jul 16:46:06 16:49:01 15° 53° (NE) 16:51:55 437.490
HORYU 2 26 Jul 16:55:55 17:00:21 67° 73° (ENE) 17:04:52 437.375
AO-85 26 Jul 16:57:57 17:02:02 23° 328° (NNW) 17:05:56 145.980
MOZHAYETS 4 26 Jul 16:59:53 17:04:28 64° 101° (ESE) 17:09:00
CUTE-I 26 Jul 17:08:36 17:12:36 22° 58° (ENE) 17:16:37 437.470
BRITE-PL 26 Jul 17:10:23 17:13:39 23° 64° (ENE) 17:16:59 437.365/2234.400
STARS 26 Jul 17:11:10 17:15:22 39° 98° (E) 17:19:33 437.465
LilacSat-2 26 Jul 17:21:12 17:23:44 17° 63° (ENE) 17:26:15 437.200
NOAA 15 26 Jul 17:29:52 17:34:41 38° 65° (ENE) 17:39:31 137.62
SWISSCUBE 26 Jul 17:31:08 17:33:23 13° 305° (NW) 17:35:39 437.505
Cosmos 2499 26 Jul 17:37:32 17:46:02 48° 289° (WNW) 17:54:19 435.465 / 435.565
NOAA 18 26 Jul 17:38:00 17:43:02 38° 64° (ENE) 17:48:08 137.9125
AO-7 26 Jul 17:46:44 17:52:30 20° 272° (W) 17:58:20 29.400- 29.500
HO-68 26 Jul 18:06:56 18:11:40 19° 48° (NE) 18:16:25 435.675
KKS-1 26 Jul 18:07:17 18:11:19 33° 294° (WNW) 18:15:20 437.445
SO-50 26 Jul 18:10:13 18:14:17 31° 243° (WSW) 18:18:16 436.795
PHONESAT 2.4 26 Jul 18:10:43 18:11:52 12° 160° (SSE) 18:13:00 2401.200-2431.200
DOVE 4 26 Jul 18:11:41 18:15:05 23° 62° (ENE) 18:18:38 437.250
GOMX 1 26 Jul 18:14:52 18:18:52 45° 70° (ENE) 18:23:04 467.674
CUBESAT XI-V 26 Jul 18:17:29 18:22:01 52° 100° (E) 18:26:31 437.345
Cubesat XI-IV 26 Jul 18:22:52 18:28:15 79° 73° (ENE) 18:33:40 437.490
RS-15 26 Jul 18:27:08 18:36:57 30° 258° (WSW) 18:46:42 29.354- 29.394
CINEMA 3 26 Jul 18:29:24 18:31:25 13° 55° (NE) 18:33:27 145.822/145.860
GONETS M04 26 Jul 18:30:41 18:37:01 22° 304° (NW) 18:43:26
HORYU 2 26 Jul 18:34:47 18:37:23 15° 270° (W) 18:40:01 437.375
CUTE 1.7 + AOD 2 26 Jul 18:36:26 18:36:29 10° 56° (NE) 18:36:32 437.475
YUBILEINY 26 Jul 18:37:23 18:40:19 12° 43° (NE) 18:43:15 435.215
MOZHAYETS 4 26 Jul 18:38:06 18:41:10 18° 300° (WNW) 18:44:13
AO-85 26 Jul 18:42:48 18:44:17 11° 352° (N) 18:45:45 145.980
CUTE-I 26 Jul 18:46:49 18:52:10 68° 257° (WSW) 18:57:34 437.470
STARS 26 Jul 18:47:53 18:51:33 26° 296° (WNW) 18:55:13 437.465
BRITE-PL 26 Jul 18:48:10 18:52:01 37° 263° (W) 18:55:55 437.365/2234.400
LilacSat-2 26 Jul 18:53:54 18:57:40 50° 261° (W) 19:01:30 437.200
